Powrót do katalogu

STARLINK-34000

AktywnyŁącznośćVLEO
NORAD 64180·PAYLOAD·🇺🇸 United States

Wystrzelony May 28, 2025 z Cape Canaveral Space Force Station

Loading…

Następne Przeloty (najbliższe 24 godziny)

TLE

ŚwieżeSource: CelesTrak SupGP

Epoka: Sep 14, 2026, 22:56 UTC

1 64180C 25113L   26257.95604167  .00050325  00000+0  16199-2 0  2570
2 64180  53.1577 291.1337 0001223  79.5150 329.1395 15.31646251    17

Śledź STARLINK-34000 w czasie rzeczywistym z AllMySat

Download on the App Store